Tracking 27188 objects as of 2-Apr-2023
HD Live streaming from Space Station
objects crossing your sky now

ONEWEB-0311

Track ONEWEB-0311 now!
10-day predictions
ONEWEB-0311 is classified as:


NORAD ID: 49097
Int'l Code: 2021-075Y
Perigee: 1,199.7 km
Apogee: 1,202.1 km
Inclination: 87.9 °
Period: 109.3 minutes
Semi major axis: 7571 km
RCS: Unknown
Launch date: August 21, 2021
Source: United Kingdom (UK)
Launch site: TYURATAM MISSILE AND SPACE COMPLEX (TTMTR)
Your satellite tracking list
Your tracking list is empty




NASA's NSSDC Master Catalog

Two Line Element Set (TLE):
1 49097U 21075Y   23091.41537348  .00000061  00000-0  12381-3 0  9999
2 49097  87.9122 238.8533 0001589  80.3050 279.8261 13.17647350 79188
Source of the keplerian elements: AFSPC